STARLINK-33895, 63934

Orbit data source: Space-Track

STARLINK-33895, 63934 is a payload satellite owned by SpaceX/Seattle (US) in LEO that was launched on Tue, 13 May 2025 UTC via an FALCON 9 launch vehicle from the Air Force Western Test Range (AFWTR). Payload-class satellites include a variety of spacecraft equipped with specific instruments for various scientific and technological missions. These include communications satellites like Starlink; space stations such as the ISS; scientific satellites like the Hubble; Earth observation satellites from companies like Planet Labs, Umbra, and HawkEye 360; GPS; miniature CubeSats for education and research; and military/defense satellites.

Loading next visibility...
Identifier
63934, 2025-098J
Orbit
LEO
Country
Flag of USUS
Related business
Manufacturer
SpaceX/Seattle
Mission
Operational Commercial Communications
Bus & Motor
STARLINK V2MO, Unknown motor
Mass
575 kg wet, ~530 kg dry
Launch date (UTC)
2025-05-13 (7 months ago)
Launch vehicle
FALCON 9
Launch site
Air Force Western Test Range (AFWTR)
Object type
Payload
Rocket body
Debris
Shape & HBR
Box + 2 Pan, 17.7 m
Radar Cross Section
36.964 m², Large (>1 m²)

Expand to show TLE details & history
Last TLE update: 10 hours ago

TLE from 10 hours ago
0 STARLINK-33895
1 63934U 25098J   25349.76739900  .00002698  00000-0  23383-3 0  9990
2 63934  70.0010 125.9775 0003307 269.1950  90.8830 14.98334277 34009
Epoch: 2025-12-15T18:25Z
TLE epoch observation values (Epoch: 2025-12-15T18:25:03.273Z)
Latitude
-0.00005°
Longitude
125.05261°
Altitude
574.503 km
Speed
7.574 km/s
True Right ascension
08h 23m 54s
True Declination
0° 00' 00"
Sunlit
Object was in full shadow at epoch
Visualization orbit readout
Latitude
Unknown
Longitude
Unknown
Altitude
Unknown
Speed
Unknown
Apparent Right ascension
Unknown
Apparent Declination
Unknown
Sunlit
N/A
Visualization observer readout
Local Sidereal Time
03:12:33
Azimuth
Unknown
Elevation
Unknown
Doppler factor
Unknown
Orbital elements
Apogee altitude
572.289 km
Perigee altitude
567.693 km
Semi-major axis
6,948.128 km
Eccentricity
0.00033
Inclination
70.001°
RAAN
125.9775°
Arg. of periapsis
269.195°
True anomaly
90.92089°
Mean anomaly
90.883°
Eccentric anomaly
90.90195°
Mean motion
3.7475 °/min
Orbital period
96.06 mins
BSTAR
0.00023383
Loading maneuver chart data...
Computing Atmospheric mass density...
Loading historical data...
Loading historical data...
Loading historical data...
Loading historical data...
Loading historical data...
Loading historical data...
Loading historical data...

Documentation

Showing up to 5 results
|